timestamp,surface_pressure_avg,surface_temp_avg,battery_voltage,lat,long
2021-05-29 00:09:01+00:00,363.0363,7.1,13.05,47.84626,-54.09684
2021-05-29 00:19:01+00:00,368.3196,7.1,12.73,47.84626,-54.09684
2021-05-29 00:29:01+00:00,371.1629,7.1,12.73,47.84626,-54.09684
2021-05-29 00:39:01+00:00,377.0513,7.1,12.73,47.84626,-54.09684
2021-05-29 00:49:01+00:00,380.2845,7.1,12.73,47.84626,-54.09684
2021-05-29 00:59:01+00:00,384.0412,7.11,12.73,47.84626,-54.09684
2021-05-29 01:09:01+00:00,386.3011,7.16,12.73,47.84626,-54.09684
2021-05-29 01:19:01+00:00,392.4429,7.19,12.65,47.84626,-54.09684
2021-05-29 01:29:01+00:00,394.5812,7.2,12.65,47.84626,-54.09684
2021-05-29 01:39:01+00:00,390.0179,7.2,12.65,47.84626,-54.09684
2021-05-29 01:49:01+00:00,390.5629,7.2,12.65,47.84626,-54.09684
2021-05-29 01:59:01+00:00,391.8313,7.2,12.65,47.84626,-54.09684
2021-05-29 02:09:01+00:00,388.6646,7.2,12.65,47.84626,-54.09684
2021-05-29 02:19:00+00:00,383.8729,7.2,12.65,47.84626,-54.09684
2021-05-29 02:29:00+00:00,380.8613,7.2,12.65,47.84626,-54.09684
2021-05-29 02:39:00+00:00,379.8895,7.2,12.65,47.84626,-54.09684
2021-05-29 02:49:00+00:00,374.0096,7.2,12.65,47.84626,-54.09684
2021-05-29 02:59:00+00:00,370.968,7.2,12.65,47.84626,-54.09684
2021-05-29 03:09:00+00:00,365.3329,7.2,12.65,47.84626,-54.09684
2021-05-29 03:19:01+00:00,359.3529,7.2,12.65,47.84626,-54.09684
2021-05-29 03:29:01+00:00,351.2562,7.2,12.65,47.84626,-54.09684
2021-05-29 03:39:01+00:00,339.4479,7.19,12.65,47.84626,-54.09684
2021-05-29 03:49:01+00:00,330.11300000000006,7.18,12.65,47.84626,-54.09684
2021-05-29 03:59:01+00:00,322.9213,7.17,12.65,47.84626,-54.09684
2021-05-29 04:09:01+00:00,315.628,7.1,12.65,47.84626,-54.09684
2021-05-29 04:19:01+00:00,301.8831,7.1,12.65,47.84626,-54.09684
2021-05-29 04:29:01+00:00,292.4331,7.1,12.65,47.84626,-54.09684
2021-05-29 04:39:01+00:00,285.4231,7.1,12.65,47.84626,-54.09684
2021-05-29 04:49:01+00:00,277.9514,7.1,12.65,47.84626,-54.09684
2021-05-29 04:59:01+00:00,265.7297,7.09,12.65,47.84626,-54.09684
2021-05-29 05:09:01+00:00,255.6931,7.08,12.65,47.84626,-54.09684
2021-05-29 05:19:00+00:00,244.9714,7.07,12.65,47.84626,-54.09684
2021-05-29 05:29:00+00:00,234.1147,7.07,12.65,47.84626,-54.09684
2021-05-29 05:39:00+00:00,220.5531,7.06,12.65,47.84626,-54.09684
2021-05-29 05:49:00+00:00,213.5481,7.03,12.65,47.84626,-54.09684
2021-05-29 05:59:00+00:00,209.0848,7.04,12.65,47.84626,-54.09684
2021-05-29 06:09:00+00:00,200.0348,7.04,12.65,47.84626,-54.09684
2021-05-29 06:19:01+00:00,191.7231,7.0,12.57,47.84626,-54.09684
2021-05-29 06:29:01+00:00,187.8448,7.02,12.57,47.84626,-54.09684
2021-05-29 06:39:01+00:00,181.6748,7.01,12.57,47.84626,-54.09684
2021-05-29 06:49:01+00:00,173.0865,7.0,12.57,47.84626,-54.09684
2021-05-29 06:59:01+00:00,173.2915,7.0,12.57,47.84626,-54.09684
2021-05-29 07:09:01+00:00,175.6898,7.0,12.57,47.84626,-54.09684
2021-05-29 07:19:00+00:00,171.4365,7.0,12.57,47.84626,-54.09684
2021-05-29 07:29:00+00:00,170.9648,7.0,12.57,47.84626,-54.09684
2021-05-29 07:39:00+00:00,177.0965,7.0,12.57,47.84626,-54.09684
2021-05-29 07:49:00+00:00,178.2115,7.0,12.57,47.84626,-54.09684
2021-05-29 07:59:00+00:00,176.5865,7.0,12.57,47.84626,-54.09684
2021-05-29 08:09:00+00:00,181.2582,7.0,12.57,47.84626,-54.09684
2021-05-29 08:19:00+00:00,186.3931,7.0,12.57,47.84626,-54.09684
2021-05-29 08:29:00+00:00,189.9948,7.0,12.57,47.84626,-54.09684
2021-05-29 08:39:00+00:00,190.4881,6.98,12.57,47.84626,-54.09684
2021-05-29 08:49:00+00:00,192.7498,6.95,12.57,47.84626,-54.09684
2021-05-29 08:59:00+00:00,196.3398,6.94,12.57,47.84626,-54.09684
2021-05-29 09:09:00+00:00,198.6848,6.93,12.57,47.84626,-54.09684
2021-05-29 09:19:00+00:00,200.0581,6.95,12.81,47.84626,-54.09684
2021-05-29 09:29:00+00:00,200.5198,6.97,12.81,47.84626,-54.09684
2021-05-29 09:39:00+00:00,202.4514,6.97,12.81,47.84626,-54.09684
2021-05-29 09:49:00+00:00,200.4481,6.96,12.81,47.84626,-54.09684
2021-05-29 09:59:00+00:00,201.5115,6.94,12.81,47.84626,-54.09684
2021-05-29 10:09:00+00:00,205.9315,6.9,12.81,47.84626,-54.09684
2021-05-29 10:19:00+00:00,210.3931,6.9,13.6,47.84626,-54.09684
2021-05-29 10:29:00+00:00,217.1014,6.9,13.6,47.84626,-54.09684
2021-05-29 10:39:00+00:00,223.1214,6.9,13.6,47.84626,-54.09684
2021-05-29 10:49:00+00:00,230.1514,6.9,13.6,47.84626,-54.09684
2021-05-29 10:59:00+00:00,236.7231,6.9,13.6,47.84626,-54.09684
2021-05-29 11:09:00+00:00,240.3148,6.95,13.6,47.84626,-54.09684
2021-05-29 11:19:01+00:00,248.3748,6.98,14.4,47.84626,-54.09684
2021-05-29 11:29:01+00:00,258.9314,6.99,14.4,47.84626,-54.09684
2021-05-29 11:39:01+00:00,266.2081,7.0,14.4,47.84626,-54.09684
2021-05-29 11:49:01+00:00,271.9781,7.0,14.4,47.84626,-54.09684
2021-05-29 11:59:01+00:00,284.0147,7.0,14.4,47.84626,-54.09684
2021-05-29 12:09:01+00:00,297.1013,7.0,14.4,47.84626,-54.09684
2021-05-29 12:19:01+00:00,301.58299999999997,7.0,14.56,47.84626,-54.09684
2021-05-29 12:29:01+00:00,302.6914,7.0,14.56,47.84626,-54.09684
2021-05-29 12:39:01+00:00,312.928,7.0,14.56,47.84626,-54.09684
2021-05-29 12:49:01+00:00,323.5646,7.0,14.56,47.84626,-54.09684
2021-05-29 12:59:01+00:00,325.8698,7.0,14.56,47.84626,-54.09684
2021-05-29 13:09:01+00:00,325.7629,7.0,14.56,47.84626,-54.09684
2021-05-29 13:19:01+00:00,334.0146,7.0,14.4,47.84626,-54.09684
2021-05-29 13:29:01+00:00,336.9113,7.0,14.4,47.84626,-54.09684
2021-05-29 13:39:01+00:00,332.4097,7.0,14.4,47.84626,-54.09684
2021-05-29 13:49:01+00:00,334.8763,7.0,14.4,47.84626,-54.09684
2021-05-29 13:59:01+00:00,343.5146,7.0,14.4,47.84626,-54.09684
2021-05-29 14:09:01+00:00,343.2663,7.0,14.4,47.84626,-54.09684
2021-05-29 14:19:01+00:00,335.7579,7.05,14.48,47.84626,-54.09684
2021-05-29 14:29:01+00:00,338.1547,7.06,14.48,47.84626,-54.09684
2021-05-29 14:39:01+00:00,340.6597,7.06,14.48,47.84626,-54.09684
2021-05-29 14:49:01+00:00,334.4829,7.08,14.48,47.84626,-54.09684
2021-05-29 14:59:01+00:00,327.6313,7.1,14.48,47.84626,-54.09684
2021-05-29 15:09:01+00:00,328.9062,7.1,14.48,47.84626,-54.09684
2021-05-29 15:19:00+00:00,329.0813,7.1,14.4,47.84626,-54.09684
2021-05-29 15:29:00+00:00,322.6813,7.1,14.4,47.84626,-54.09684
2021-05-29 15:39:00+00:00,319.1397,7.1,14.4,47.84626,-54.09684
2021-05-29 15:49:00+00:00,320.7531,7.11,14.4,47.84626,-54.09684
2021-05-29 15:59:00+00:00,314.3229,7.16,14.4,47.84626,-54.09684
2021-05-29 16:09:00+00:00,301.8747,7.23,14.4,47.84626,-54.09684
2021-05-29 16:19:00+00:00,294.343,7.3,14.32,47.84626,-54.09684
2021-05-29 16:29:00+00:00,288.3931,7.3,14.32,47.84626,-54.09684
2021-05-29 16:39:00+00:00,278.58299999999997,7.3,14.32,47.84626,-54.09684
2021-05-29 16:49:00+00:00,269.2831,7.37,14.32,47.84626,-54.09684
2021-05-29 16:59:00+00:00,263.4581,7.34,14.32,47.84626,-54.09684
2021-05-29 17:09:00+00:00,256.8714,7.3,14.32,47.84626,-54.09684
2021-05-29 17:19:00+00:00,246.5864,7.32,14.24,47.84626,-54.09684
2021-05-29 17:29:00+00:00,236.4147,7.38,14.24,47.84626,-54.09684
2021-05-29 17:39:00+00:00,226.9598,7.37,14.24,47.84626,-54.09684
2021-05-29 17:49:00+00:00,219.4081,7.35,14.24,47.84626,-54.09684
2021-05-29 17:59:00+00:00,211.2248,7.36,14.24,47.84626,-54.09684
2021-05-29 18:09:00+00:00,202.4915,7.38,14.24,47.84626,-54.09684
2021-05-29 18:19:01+00:00,195.9415,7.38,14.08,47.84626,-54.09684
2021-05-29 18:29:01+00:00,189.8432,7.39,14.08,47.84626,-54.09684
2021-05-29 18:39:01+00:00,184.7014,7.38,14.08,47.84626,-54.09684
2021-05-29 18:49:01+00:00,183.2482,7.36,14.08,47.84626,-54.09684
2021-05-29 18:59:01+00:00,183.7881,7.37,14.08,47.84626,-54.09684
2021-05-29 19:09:01+00:00,182.7415,7.4,14.08,47.84626,-54.09684
2021-05-29 19:19:01+00:00,179.3615,7.4,14.0,47.84626,-54.09684
2021-05-29 19:29:01+00:00,179.4548,7.39,14.0,47.84626,-54.09684
2021-05-29 19:39:01+00:00,176.7682,7.37,14.0,47.84626,-54.09684
2021-05-29 19:49:01+00:00,171.8531,7.35,14.0,47.84626,-54.09684
2021-05-29 19:59:01+00:00,175.3015,7.35,14.0,47.84626,-54.09684
2021-05-29 20:09:01+00:00,182.1165,7.39,14.0,47.84626,-54.09684
2021-05-29 20:19:01+00:00,185.1831,7.42,13.84,47.84626,-54.09684
2021-05-29 20:29:01+00:00,189.6831,7.49,13.84,47.84626,-54.09684
2021-05-29 20:39:01+00:00,196.8981,7.5,13.84,47.84626,-54.09684
2021-05-29 20:49:01+00:00,201.6864,7.7,13.84,47.84626,-54.09684
2021-05-29 20:59:01+00:00,202.2181,7.96,13.84,47.84626,-54.09684
2021-05-29 21:09:01+00:00,202.4748,8.1,13.84,47.84626,-54.09684
2021-05-29 21:19:01+00:00,207.1114,8.1,13.68,47.84626,-54.09684
2021-05-29 21:29:01+00:00,212.2831,8.1,13.68,47.84626,-54.09684
2021-05-29 21:39:01+00:00,215.3831,8.0,13.68,47.84626,-54.09684
2021-05-29 21:49:01+00:00,217.1431,8.0,13.68,47.84626,-54.09684
2021-05-29 21:59:01+00:00,222.2215,7.9,13.68,47.84626,-54.09684
2021-05-29 22:09:01+00:00,231.0414,7.9,13.68,47.84626,-54.09684
2021-05-29 22:19:01+00:00,234.2148,7.8,13.53,47.84626,-54.09684
2021-05-29 22:29:01+00:00,234.4814,7.8,13.53,47.84626,-54.09684
2021-05-29 22:39:01+00:00,240.4714,7.78,13.53,47.84626,-54.09684
2021-05-29 22:49:01+00:00,245.3681,7.7,13.53,47.84626,-54.09684
2021-05-29 22:59:01+00:00,250.4864,7.7,13.53,47.84626,-54.09684
2021-05-29 23:09:01+00:00,258.8697,7.7,13.53,47.84626,-54.09684
2021-05-29 23:19:01+00:00,264.7798,7.69,13.21,47.84626,-54.09684
2021-05-29 23:29:01+00:00,266.4364,7.7,13.21,47.84626,-54.09684
2021-05-29 23:39:01+00:00,274.7148,7.73,13.21,47.84626,-54.09684
2021-05-29 23:49:01+00:00,286.983,7.6,13.21,47.84626,-54.09684
2021-05-29 23:59:01+00:00,293.1914,7.5,13.21,47.84626,-54.09684
